www.pogodaiklimat.ru

Погода и климат >> Архив погоды >> Россия >> Якутия >> Батамай


ПОГОДА в Батамае

  • Прогноз погоды в Батамае
  • Монитор погоды в Батамае

АРХИВ ПОГОДЫ в Батамае

Время (UTC), дата Ветер
(напр.,м/с)
 
Видим.   Явления Облачность Т
(С)
Тd
(С)
f
(%)
Тe
(С)
Тes
(С)
Комфортность P
(гПа)
Po
(гПа)
Тmin
(С)
Tmax
(С)
R
(мм)
R24
(мм)
S
(см)
09 11.08 В 3 50 км {ливн. осадки} 10/5 600 м
[Cb cap Ac trans Cs]
+20.1 +8.9 48 +22 +22 комфорт 1008.5 999.2
12 11.08 СВ 1 50 км {ливн. осадки} 10/3 600 м
[Cb cap Ac trans Cs]
+15.8 +11.4 75 +17 +17 1008.9 999.4 +20.9 0.0
15 11.08 С 1 50 км 10/3 600 м
[Cb cap Ac trans Ci fib]
+10.0 +8.4 90 +9 +9 1008.6 999.0
18 11.08 С 1 50 км 10/3 600 м
[Cb cap Ac trans Ci fib]
+9.8 +8.2 90 +9 +9 1007.9 998.3
21 11.08 С 1 50 км 8/3 1000 м
[Sc Ac trans]
+8.8 +8.2 96 +8 +8 1007.9 998.3
00 12.08 С 1 50 км 8/3 1000 м
[Sc Ac trans]
+15.4 +11.3 77 +16 +19 1007.8 998.3 +7.7
03 12.08 ЮЗ 1 50 км 6/3 1000 м
[Sc Ac trans Ci fib]
+20.1 +13.1 64 +23 +29 комфорт 1006.4 997.1
06 12.08 ЮЗ 2 50 км 10/5 600 м
[Cb cap Ac trans Ci fib]
+21.7 +13.2 58 +24 +26 комфорт 1005.6 996.3
09 12.08 В 1 10 км гроза, ливневой дождь 10/8 600 м
[Cb cap Ac trans Ci fib]
+16.0 +12.2 78 +17 +17 1006.3 996.8
12 12.08 штиль 0 50 км {гроза, ливн. осадки} 8/3 600 м
[Cb cap Ac trans Ci fib]
+14.4 +13.0 91 +14 +14 1007.6 998.1 +23.5 0.5
15 12.08 С 1 50 км 3/0
[Ac trans Ci fib]
+9.8 +9.4 97 +9 +9 1008.0 998.4
18 12.08 С 1 50 км 3/0
[Ci fib]
+7.0 +6.6 97 +6 +6 1008.7 998.9
21 12.08 С 2 50 км 3/0
[Ci fib]
+9.3 +8.5 95 +7 +8 1009.5 999.9
00 13.08 Ю 1 50 км 3/0
[Ci fib]
+15.4 +11.7 79 +16 +22 1009.6 1000.1 +6.4
03 13.08 ЮЗ 1 50 км ясно +20.3 +13.3 64 +24 +34 комфорт 1009.3 1000.0
06 13.08 ЮЗ 1 50 км ясно +23.6 +12.7 50 +26 +33 жарко 1008.6 999.5
09 13.08 Ю 1 50 км 1/0
[Ci fib]
+23.3 +13.7 55 +27 +28 душно 1008.0 998.9
12 13.08 СВ 1 50 км 4/1 600 м
[Cb cap Ci fib]
+16.7 +12.0 74 +18 +18 1008.9 999.4 +24.1
15 13.08 С 1 50 км 5/1 600 м
[Cb cap Ci fib]
+12.2 +8.4 78 +12 +12 1009.4 999.8
18 13.08 штиль 0 50 км 5/0
[Ci fib]
+10.2 +9.0 92 +9 +9 1009.8 1000.2
21 13.08 СВ 1 50 км 3/0
[Ci fib]
+6.8 +5.9 94 +6 +6 1010.2 1000.4
00 14.08 СВ 2 50 км дым ясно +17.7 +10.9 64 +18 +23 1011.0 1000.3 +7.8
03 14.08 ЮВ 3 20 км дым 3/0
[Ci fib]
+23.6 +12.5 50 +26 +33 жарко 1009.3 1000.2
06 14.08 В 4 10 км дым 10/3 600 м
[Cb cap Ac trans Cs]
+26.3 +11.7 40 +28 +29 жарко 1008.6 999.5
09 14.08 В 2 4000 м мгла 10/0
[Ac trans Cs]
+26.1 +11.4 40 +27 +28 жарко 1008.0 998.9
12 14.08 СВ 2 4000 м мгла 10/0
[Cs]
+15.5 +11.0 75 +15 +15 1008.8 999.3 +26.6
15 14.08 СВ 2 10 км дым 10/0
[Cs]
+15.3 +10.8 75 +15 +15 1009.4 999.9
18 14.08 СВ 1 50 км 5/0
[Ci fib]
+13.1 +8.7 75 +13 +13 1010.0 1000.5
21 14.08 С 1 50 км 10/4 1000 м
[Sc Ac trans Ci fib]
+9.1 +6.7 85 +8 +9 1011.0 1001.4
00 15.08 СВ 3 20 км дым 10/0
[Ac trans Cs]
+20.7 +9.7 49 +23 +26 комфорт 1010.6 1001.3 +9.1
03 15.08 СВ 4 20 км дым 10/0
[Ac trans Cs]
+25.1 +9.7 38 +26 +30 жарко 1010.2 1001.1
06 15.08 В 4 4000 м мгла 10/3 600 м
[Cb cap Ac trans Cs]
+25.9 +7.8 32 +26 +27 жарко 1009.6 1000.5
09 15.08 В 2 4000 м мгла 10/0
[Ac trans Cs]
+25.1 +7.6 33 +25 +26 комфорт 1009.7 1000.6
12 15.08 Ю 5 20 км дым 10/4 600 м
[Cb cap Ac trans Cs]
+21.5 +11.7 54 +24 +24 комфорт 1011.2 1001.9 +26.2
15 15.08 В 1 50 км {ливн. осадки} 10/6 600 м
[Cb cap Ac trans]
+16.5 +14.4 87 +17 +17 1012.4 1002.9
18 15.08 С 1 50 км в посл. час ливневой дождь 10/8 600 м
[Cb cap Ac trans]
+15.7 +12.6 82 +16 +16 1013.0 1003.5
21 15.08 СВ 1 10 км дым 10/0
[Ac As]
+15.5 +12.2 81 +16 +16 1013.9 1004.4
00 16.08 В 2 4000 м дым 10/4 600 м
[Cb cap Ac trans Cs]
+18.3 +12.6 69 +19 +21 1013.9 1004.6 +15.1 0.3
03 16.08 В 4 4000 м дым 10/0
[Ac trans Cs]
+23.5 +10.0 42 +25 +29 комфорт 1013.6 1004.5
06 16.08 Ю 4
{10}
20 км слаб. дождь 10/0
[As op]
+18.7 +13.0 69 +19 +20 1014.2 1004.9
09 16.08 СВ 3 10 км дым {дождь} 10/0
[Ac As]
+14.4 +13.5 94 +13 +14 1016.0 1006.4
12 16.08 СВ 1 50 км {дождь} 10/4 300 м
[St Ac As]
+14.4 +13.5 94 +15 +15 1016.2 1006.6 +25.0 3
15 16.08 СВ 2 50 км 10/10 600 м
[Cb cap]
+14.2 +12.7 91 +14 +14 1016.0 1006.4
18 16.08 СВ 2 50 км 10/10 600 м
[Cb cap]
+14.5 +11.7 83 +14 +14 1015.9 1006.3
21 16.08 СВ 1 10 км дым 10/10 600 м
[Cb cap]
+14.3 +10.9 80 +15 +15 1016.0 1006.4
00 17.08 СВ 3 10 км дым 10/8 600 м
[Cb cap Ac trans]
+17.6 +12.0 70 +18 +18 1016.1 1006.7 +13.8
03 17.08 СВ 4 10 км слаб. ливневой дождь 10/10 600 м
[Cb cap]
+16.3 +11.7 74 +16 +16 1016.5 1006.9 +16.3
06 17.08 В 2 20 км дым {ливн. осадки} 10// 600 м
[Cb cap Ac trans Cs]
+20.5 +14.7 69 +24 +27 комфорт 1015.3 1005.9
09 17.08 СВ 2 20 км дым 10/0
[Ac trans Cs]
+22.3 +13.9 59 +25 +26 комфорт 1015.0 1005.6
12 17.08 СВ 3 20 км дым 10/0
[Ac trans Cs]
+18.3 +12.6 69 +19 +19 1015.2 1005.8 +22.9 0.3
15 17.08 В 2 50 км 10/0
[Cs]
+15.2 +11.7 80 +15 +15 1016.1 1006.5
18 17.08 В 1 50 км 10/0
[Ac As]
+12.6 +10.1 85 +13 +13 1017.3 1007.7
21 17.08 СВ 2 50 км 10/0
[Ac As]
+12.3 +9.8 85 +11 +11 1018.0 1008.3
00 18.08 СВ 2 20 км дым 10/0
[Ac As]
+15.3 +10.6 74 +15 +17 1018.0 1008.4 +12.3
03 18.08 С 3 50 км 10/0
[Ac trans Cs]
+18.6 +10.9 61 +19 +24 1015.9 1006.5
06 18.08 СВ 3 50 км 10/5 600 м
[Cb cap Ac trans Cs]
+20.3 +10.1 52 +22 +23 комфорт 1013.4 1004.1

 

Местоположение метеостанции Батамай (Якутия, Россия): широта 63.52 долгота 129.40 высота над уровнем моря 79 м.

В архиве по умолчанию представлена погода в Батамае за последнюю неделю. Архивные данные за месяц целиком и за предыдущие месяцы, начиная с января 2011 года, Вы можете получить, выбрав интересующий диапазон дат из раскрывающегося списка и нажав кнопку "Ввод!".


*Определитесь, кто Вы:
робот инопланетянин человек

Внимание! Время в таблицах - всемирное. Для получения местного времени необходимо прибавить поправку, которая равна 9 ч.

Смотрите также архив погоды в соседних городах и на ближайших метеорологических станциях:

Погода в Сеген-Кюеле (Якутия, Россия) (69 км)
Погода в Намцах (Якутия, Россия) (90 км)
Погода в Сангаре (Якутия, Россия) (109 км)
Погода в Верхоянском Перевозе (Якутия, Россия) (131 км)
Погода в Якутске (Якутия, Россия) (169 км)
Погода в Сого-Хае (Якутия, Россия) (169 км)
Погода в Бердигестяхе (Якутия, Россия) (185 км)
Погода в Себян-Кюеле (Якутия, Россия) (200 км)
Погода в Покровске (Якутия, Россия) (227 км)
Погода в Хатырык-Хомо (Якутия, Россия) (231 км)

Пояснения к столбцам:

Ветер - указаны скорость ветра в м/с - средняя за 10 мин, порывы в срок и между сроками (в фигурных скобках) и направление, откуда дует ветер: С - северный, СВ - северо-восточный, В - восточный, ЮВ - юго-восточный, Ю - южный, ЮЗ - юго-западный, З - западный, СЗ - северо-западный.
Видимость - горизонтальная дальность видимости в метрах или километрах. При видимости от 1 до 10 км при отсутствии осадков обычно наблюдается дымка, при ухудшении видимости до 1 км и менее - туман. В сухую погоду видимость может ухудшаться дымом, пылью или мглою.
Явления - указаны атмосферные явления, наблюдавшиеся в срок или в последний час перед сроком; фигурными скобками обозначены явления, наблюдавшиеся между сроками (за 1-3 часа до срока); квадратными скобками обозначены град или гололедные отложения с указанием их диаметра в мм.
Облачность - указаны через наклонную черту общая и нижняя облачность в баллах и высота нижней границы облаков в метрах; квадратными скобками обозначены формы облаков: Ci - перистые, Cs - перисто-слоистые, Cc - перисто-кучевые, Ac - высококучевые, As - высокослоистые, Sc - слоисто-кучевые, Ns - слоисто-дождевые, Cu - кучевые, Cb - кучево-дождевые. Подробнее классификацию облаков см. в Атласе облаков (PDF).
T - Температура воздуха - температура, измеренная на высоте 2 м над землей.
Td - Температура точки росы - температура, при понижении до которой содержащийся в воздухе водяной пар достигнет насыщения.
f - Относительная влажность воздуха - влажноcть воздуха, измеренная на высоте 2 м над землей.
Te - Эффективная температура - температура, которую ощущает одетый по сезону человек в тени. Характеристика душности погоды. При расчете учитывается влияние влажности воздуха и скорости ветра на теплоощущения человека.
Tes - Эффективная температура на солнце - температура, которую ощущает человек, с поправкой на солнечный нагрев. Характеристика знойности погоды. Зависит от высоты солнца над горизонтом, облачности и скорости ветра. Ночью, в пасмурную погоду, а также при ветре 12 м/с и более поправка равна нулю.
P - Атмосферное давление - приведенное к уровню моря атмосферное давление.
Po - Атмосферное давление - измеренное на уровне метеостанции атмосферное давление.
Tmin - Минимальная температура - минимум температуры воздуха на высоте 2 м над землей.
Tmax - Максимальная температура - максимум температуры воздуха на высоте 2 м над землей.
R - Количество осадков - Количество выпавших осадков за период времени, мм. При наведении курсора мыши на число - период времени, за который выпало указанное количество осадков.
R24 - Количество осадков - Количество выпавших осадков за 24 часа, мм.
S - Снежный покров - Высота снежного покрова, см. При наведении курсора мыши на число - состояние снежного покрова и степень покрытия местности в баллах.